GOES 9 1 23581U 95025A 10061.90873513 -.00000156 +00000-0 +10000-3 0 04389 2 23581 005.9455 067.4346 0004276 285.2879 074.8694 00.98800385053983 GOES 11 1 26352U 00022A 10066.45773990 +.00000076 +00000-0 +10000-3 0 07365 2 26352 000.1713 086.4649 0001616 219.7845 247.9292 01.00269892036044 NADEZHDA 6 1 26384U 00033A 10067.68525124 +.00000004 +00000-0 +10268-4 0 08451 2 26384 098.3640 107.9767 0016973 109.0897 251.2150 14.64165175517652 NOAA 16 1 26536U 00055A 10065.16466392 .00000252 00000-0 16130-3 0 7688 2 26536 099.1758 080.1781 0009762 266.0935 093.9165 14.12549302487286 GOES 12 1 26871U 01031A 10065.09610576 -.00000265 00000-0 00000+0 0 4757 2 26871 000.3001 087.3478 0002892 307.9160 088.2192 01.00281207 31638 NOAA 17 1 27453U 02032A 10065.28004961 -.00000099 00000-0 -24809-4 0 7748 2 27453 098.4444 119.8053 0012691 079.8237 280.4387 14.24135730400059 INSAT 3A 1 27714U 03013A 10062.75176337 -.00000273 +00000-0 +10000-3 0 00321 2 27714 000.0818 270.4720 0004872 030.7075 224.2984 01.00269710025302 NOAA 18 1 28654U 05018A 10065.29199991 -.00000117 00000-0 -39878-4 0 2599 2 28654 098.9411 011.9070 0014301 347.5810 012.5010 14.11332505246921 MSG 2 1 28912U 05049B 10067.00000000 -.00000019 +00000-0 +00000-0 0 06251 2 28912 000.2080 082.8250 0001201 303.4460 139.1610 01.00274042015493 METOP-A 1 29499U 06044A 10067.77024993 +.00000181 +00000-0 +10272-3 0 00549 2 29499 098.6847 128.9575 0000709 093.7361 266.3900 14.21499793175603